TimePST,TemperatureF,Dew PointF,Humidity,Sea Level PressureIn,VisibilityMPH,Wind Direction,Wind SpeedMPH,Gust SpeedMPH,PrecipitationIn,Events,Conditions,WindDirDegrees,DateUTC
12:58 AM,29.7,29.5,99,29.87,10.0,SSE,6.9,-,N/A,,Overcast,160,2012-12-23 08:58:00
1:58 AM,30.7,30.7,100,29.88,10.0,South,10.4,-,N/A,,Overcast,170,2012-12-23 09:58:00
2:06 AM,32.0,32.0,100,29.82,10.0,South,9.2,-,N/A,,Mostly Cloudy,170,2012-12-23 10:06:00
2:17 AM,32.0,32.0,100,29.82,10.0,SSE,12.7,-,N/A,Snow,Light Snow,160,2012-12-23 10:17:00
2:45 AM,32.0,32.0,100,29.82,10.0,South,8.1,-,N/A,,Overcast,190,2012-12-23 10:45:00
2:58 AM,31.6,31.6,100,29.90,10.0,South,10.4,-,0.00,,Overcast,180,2012-12-23 10:58:00
3:01 AM,32.0,32.0,100,29.83,10.0,South,11.5,-,N/A,Snow,Light Snow,190,2012-12-23 11:01:00
3:16 AM,32.0,32.0,100,29.83,10.0,SSW,8.1,-,N/A,Snow,Light Snow,210,2012-12-23 11:16:00
3:23 AM,33.8,33.8,100,29.83,10.0,South,8.1,-,N/A,,Mostly Cloudy,190,2012-12-23 11:23:00
3:38 AM,32.0,32.0,100,29.82,10.0,SE,5.8,-,N/A,,Mostly Cloudy,140,2012-12-23 11:38:00
3:58 AM,32.5,32.5,100,29.90,10.0,SE,8.1,-,0.00,,Mostly Cloudy,140,2012-12-23 11:58:00
4:48 AM,32.0,32.0,100,29.83,10.0,SSE,6.9,-,N/A,,Mostly Cloudy,160,2012-12-23 12:48:00
4:58 AM,30.6,30.6,100,29.90,10.0,SSE,8.1,-,0.00,,Scattered Clouds,160,2012-12-23 12:58:00
5:01 AM,30.2,30.2,100,29.83,10.0,SSE,8.1,-,N/A,,Partly Cloudy,160,2012-12-23 13:01:00
5:58 AM,27.9,27.9,100,29.91,10.0,South,8.1,-,0.00,,Clear,180,2012-12-23 13:58:00
6:58 AM,27.0,27.0,100,29.92,10.0,SSE,8.1,-,N/A,,Clear,150,2012-12-23 14:58:00
7:58 AM,29.8,29.8,100,29.91,10.0,SSE,3.5,-,N/A,,Clear,150,2012-12-23 15:58:00
8:58 AM,29.3,29.3,100,29.92,10.0,ESE,3.5,-,N/A,,Clear,120,2012-12-23 16:58:00
9:41 AM,32.0,32.0,100,29.84,10.0,ESE,8.1,-,N/A,,Partly Cloudy,110,2012-12-23 17:41:00
9:58 AM,31.1,31.1,100,29.91,10.0,ESE,6.9,-,0.00,,Clear,120,2012-12-23 17:58:00
10:14 AM,32.0,32.0,100,29.84,10.0,SE,5.8,-,N/A,,Clear,130,2012-12-23 18:14:00
10:19 AM,32.0,32.0,100,29.84,10.0,SE,6.9,-,N/A,,Clear,130,2012-12-23 18:19:00
10:40 AM,33.8,33.8,100,29.82,10.0,ESE,9.2,-,N/A,,Clear,120,2012-12-23 18:40:00
10:58 AM,35.2,35.1,99,29.89,10.0,SE,10.4,-,0.00,,Clear,130,2012-12-23 18:58:00
11:58 AM,35.8,35.8,100,29.83,10.0,East,9.2,-,N/A,,Clear,90,2012-12-23 19:58:00
12:58 PM,35.4,35.4,100,29.81,10.0,East,9.2,-,N/A,,Clear,100,2012-12-23 20:58:00
1:58 PM,35.4,35.4,100,29.76,10.0,East,11.5,-,N/A,,Partly Cloudy,80,2012-12-23 21:58:00
2:58 PM,35.2,35.2,100,29.73,10.0,ENE,6.9,-,N/A,,Partly Cloudy,70,2012-12-23 22:58:00
3:58 PM,34.0,34.0,100,29.72,10.0,NE,11.5,-,N/A,,Clear,40,2012-12-23 23:58:00
4:58 PM,35.2,35.2,100,29.70,10.0,NNE,13.8,-,N/A,,Mostly Cloudy,30,2012-12-24 00:58:00
5:58 PM,35.1,35.1,100,29.67,10.0,North,12.7,-,N/A,,Mostly Cloudy,10,2012-12-24 01:58:00
6:47 PM,33.8,33.8,100,29.59,10.0,NE,11.5,-,N/A,,Overcast,50,2012-12-24 02:47:00
6:52 PM,33.8,33.8,100,29.60,10.0,ESE,8.1,-,N/A,,Mostly Cloudy,110,2012-12-24 02:52:00
6:58 PM,33.6,33.6,100,29.68,10.0,East,12.7,-,0.00,Rain,Light Rain,100,2012-12-24 02:58:00
7:18 PM,32.0,32.0,100,29.59,5.0,East,9.2,-,N/A,Snow,Light Snow,90,2012-12-24 03:18:00
7:43 PM,32.0,32.0,100,29.59,6.0,East,9.2,-,N/A,Snow,Light Snow,80,2012-12-24 03:43:00
7:48 PM,32.0,32.0,100,29.59,5.0,East,12.7,-,N/A,Snow,Light Snow,80,2012-12-24 03:48:00
7:58 PM,32.5,32.5,100,29.66,4.0,ENE,12.7,-,0.01,Snow,Light Snow,70,2012-12-24 03:58:00
8:10 PM,32.0,32.0,100,29.58,5.0,ENE,12.7,-,N/A,Snow,Light Snow,60,2012-12-24 04:10:00
8:20 PM,32.0,32.0,100,29.58,4.0,NE,12.7,-,N/A,Snow,Light Snow,50,2012-12-24 04:20:00
8:55 PM,32.0,32.0,100,29.57,6.0,NNE,10.4,-,N/A,Snow,Light Snow,30,2012-12-24 04:55:00
8:58 PM,32.2,32.2,100,29.64,6.0,NNE,10.4,-,0.01,Snow,Light Snow,20,2012-12-24 04:58:00
9:08 PM,32.0,32.0,100,29.57,5.0,NNE,11.5,-,N/A,Snow,Light Snow,20,2012-12-24 05:08:00
9:15 PM,32.0,32.0,100,29.57,5.0,NNE,11.5,-,N/A,Snow,Light Snow,20,2012-12-24 05:15:00
9:20 PM,32.0,32.0,100,29.57,5.0,NNE,11.5,-,N/A,Snow,Light Snow,20,2012-12-24 05:20:00
9:30 PM,32.0,32.0,100,29.57,5.0,NNE,12.7,-,N/A,Snow,Light Snow,20,2012-12-24 05:30:00
9:50 PM,32.0,32.0,100,29.57,1.8,NE,12.7,-,N/A,Snow,Light Snow,50,2012-12-24 05:50:00
9:55 PM,32.0,32.0,100,29.57,1.5,NE,12.7,-,N/A,Snow,Light Snow,50,2012-12-24 05:55:00
9:58 PM,32.2,32.2,100,29.64,1.5,NE,13.8,-,0.02,Snow,Light Snow,50,2012-12-24 05:58:00
10:08 PM,32.0,32.0,100,29.58,1.2,NE,10.4,-,N/A,Snow,Light Snow,50,2012-12-24 06:08:00
10:18 PM,32.0,32.0,100,29.58,1.2,NE,8.1,-,N/A,Snow,Light Snow,40,2012-12-24 06:18:00
10:23 PM,32.0,32.0,100,29.58,1.0,NE,9.2,-,N/A,Snow,Light Snow,40,2012-12-24 06:23:00
10:38 PM,32.0,32.0,100,29.58,1.0,NE,10.4,-,N/A,Snow,Light Snow,40,2012-12-24 06:38:00
10:43 PM,32.0,32.0,100,29.58,1.0,NE,10.4,-,N/A,Snow,Light Snow,40,2012-12-24 06:43:00
10:58 PM,32.0,32.0,100,29.64,1.0,NE,6.9,-,0.02,Snow,Light Snow,50,2012-12-24 06:58:00
11:03 PM,32.0,32.0,100,29.58,1.0,NE,8.1,-,N/A,Snow,Light Snow,50,2012-12-24 07:03:00
11:13 PM,32.0,32.0,100,29.59,1.2,NE,8.1,-,N/A,Snow,Light Snow,50,2012-12-24 07:13:00
11:18 PM,32.0,32.0,100,29.59,1.2,NE,8.1,-,N/A,Snow,Light Snow,50,2012-12-24 07:18:00
11:28 PM,32.0,32.0,100,29.59,1.5,ENE,8.1,-,N/A,Snow,Light Snow,70,2012-12-24 07:28:00
11:33 PM,32.0,32.0,100,29.59,1.2,ENE,8.1,-,N/A,Snow,Light Snow,60,2012-12-24 07:33:00
11:38 PM,32.0,32.0,100,29.59,1.2,NE,9.2,-,N/A,Snow,Light Snow,50,2012-12-24 07:38:00
11:43 PM,32.0,32.0,100,29.59,1.2,ENE,6.9,-,N/A,Snow,Light Snow,60,2012-12-24 07:43:00
11:48 PM,32.0,32.0,100,29.59,1.5,ENE,2.3,-,N/A,Snow,Light Snow,70,2012-12-24 07:48:00
11:53 PM,32.0,32.0,100,29.60,1.5,ENE,11.5,-,N/A,Snow,Light Snow,60,2012-12-24 07:53:00
11:58 PM,31.6,31.6,100,29.65,2.0,ENE,8.1,-,0.03,Snow,Light Snow,70,2012-12-24 07:58:00